SMR108 OIIE-UTDD

Flight info

Callsign SMR108
Flight time 1h 51m
Altitude 35000
Route N0450F350 DHN B451 BRD L720 RIKOP B114 ASB A117 LBA B376 MANAT Z777 INDUD Q169 SOPNO
Aircraft B739/M-VGDW/C

Departure

Time 2026-05-07 15:32
Airport Imam Khomeini International Airport (OIIE)

Arrival

Time 2026-05-07 17:24
Airport Dushanbe International Airport (UTDD)
Time Latitude Longitude Altitude Speed Heading
2026-05-07 15:18 35.40929 51.15832 3266 ft 0 kts 199°
2026-05-07 15:25 35.40943 51.15838 3264 ft 4 kts 199°
2026-05-07 15:25 35.40968 51.15849 3263 ft 4 kts 199°
2026-05-07 15:26 35.40989 51.15858 3264 ft 2 kts 209°
2026-05-07 15:26 35.40999 51.15866 3263 ft 2 kts 231°
2026-05-07 15:26 35.41005 51.15878 3263 ft 2 kts 258°
2026-05-07 15:26 35.41006 51.15892 3263 ft 2 kts 274°
2026-05-07 15:27 35.41004 51.15905 3263 ft 2 kts 282°
2026-05-07 15:27 35.41002 51.15918 3263 ft 2 kts 287°
2026-05-07 15:27 35.41001 51.15921 3262 ft 0 kts 288°
2026-05-07 15:28 35.41009 51.15892 3263 ft 12 kts 287°
2026-05-07 15:28 35.41032 51.15844 3263 ft 3 kts 322°
2026-05-07 15:29 35.41043 51.15838 3267 ft 0 kts 342°
2026-05-07 15:29 35.41118 51.15850 3265 ft 22 kts 16°
2026-05-07 15:29 35.41230 51.15800 3267 ft 24 kts 291°
2026-05-07 15:29 35.41307 51.15533 3270 ft 41 kts 289°
2026-05-07 15:30 35.41417 51.15143 3273 ft 55 kts 289°
2026-05-07 15:30 35.41552 51.14657 3280 ft 66 kts 289°
2026-05-07 15:30 35.41704 51.14111 3287 ft 67 kts 288°
2026-05-07 15:30 35.41824 51.13659 3294 ft 40 kts 290°
2026-05-07 15:31 35.41914 51.13444 3297 ft 20 kts 332°
2026-05-07 15:31 35.41999 51.13466 3298 ft 7 kts 69°
2026-05-07 15:31 35.41960 51.13640 3294 ft 52 kts 109°
2026-05-07 15:31 35.41750 51.14376 3283 ft 128 kts 109°
2026-05-07 15:32 35.41372 51.15651 3273 ft 188 kts 115°
2026-05-07 15:32 35.40911 51.17238 3709 ft 205 kts 112°
2026-05-07 15:32 35.40587 51.19021 4290 ft 223 kts 101°
2026-05-07 15:32 35.40435 51.20888 5124 ft 219 kts 98°
2026-05-07 15:33 35.40291 51.22840 5447 ft 242 kts 97°
2026-05-07 15:33 35.40131 51.24988 5613 ft 264 kts 98°
2026-05-07 15:33 35.39948 51.27313 5922 ft 279 kts 98°
2026-05-07 15:33 35.39745 51.29762 6228 ft 300 kts 97°
2026-05-07 15:34 35.39525 51.32309 6849 ft 306 kts 98°
2026-05-07 15:34 35.39294 51.34917 7593 ft 311 kts 98°
2026-05-07 15:34 35.39055 51.37555 8378 ft 311 kts 98°
2026-05-07 15:34 35.38810 51.40198 9101 ft 313 kts 99°
2026-05-07 15:35 35.38559 51.42853 9903 ft 314 kts 98°
2026-05-07 15:35 35.38303 51.45543 10439 ft 326 kts 98°
2026-05-07 15:35 35.38025 51.48402 10607 ft 349 kts 98°
2026-05-07 15:35 35.37728 51.51448 10777 ft 371 kts 98°
2026-05-07 15:36 35.37413 51.54670 10914 ft 390 kts 98°
2026-05-07 15:36 35.37083 51.58049 11050 ft 408 kts 98°
2026-05-07 15:36 35.36739 51.61558 11268 ft 420 kts 98°
2026-05-07 15:36 35.36389 51.65134 11729 ft 425 kts 98°
2026-05-07 15:37 35.36036 51.68737 12271 ft 427 kts 98°
2026-05-07 15:37 35.35681 51.72353 12813 ft 429 kts 98°
2026-05-07 15:37 35.35321 51.75992 13322 ft 432 kts 98°
2026-05-07 15:37 35.34958 51.79657 13816 ft 435 kts 98°
2026-05-07 15:38 35.34589 51.83352 14251 ft 439 kts 98°
2026-05-07 15:38 35.34217 51.87074 14664 ft 442 kts 99°
2026-05-07 15:38 35.33840 51.90830 15080 ft 446 kts 99°
2026-05-07 15:38 35.33459 51.94615 15500 ft 450 kts 99°
2026-05-07 15:39 35.33073 51.98431 15909 ft 453 kts 99°
2026-05-07 15:39 35.32684 52.02278 16324 ft 457 kts 99°
2026-05-07 15:39 35.32290 52.06149 16750 ft 460 kts 99°
2026-05-07 15:39 35.31893 52.10046 17150 ft 463 kts 99°
2026-05-07 15:40 35.31492 52.13973 17537 ft 466 kts 99°
2026-05-07 15:40 35.31087 52.17918 17947 ft 469 kts 99°
2026-05-07 15:40 35.30678 52.21893 18334 ft 472 kts 100°
2026-05-07 15:40 35.30266 52.25880 18712 ft 473 kts 100°
2026-05-07 15:41 35.29851 52.29889 19041 ft 476 kts 100°
2026-05-07 15:41 35.29433 52.33919 19374 ft 479 kts 100°
2026-05-07 15:41 35.29010 52.37971 19701 ft 481 kts 100°
2026-05-07 15:41 35.28584 52.42038 20031 ft 483 kts 101°
2026-05-07 15:42 35.28156 52.46121 20368 ft 485 kts 101°
2026-05-07 15:42 35.27731 52.50167 20694 ft 487 kts 101°
2026-05-07 15:42 35.27291 52.54345 21012 ft 489 kts 101°
2026-05-07 15:42 35.26860 52.58426 21306 ft 492 kts 101°
2026-05-07 15:43 35.26419 52.62585 21593 ft 494 kts 101°
2026-05-07 15:43 35.25970 52.66819 21888 ft 496 kts 100°
2026-05-07 15:43 35.25933 52.71010 22105 ft 506 kts 83°
2026-05-07 15:43 35.26920 52.75148 22417 ft 511 kts 65°
2026-05-07 15:44 35.28729 52.78894 22754 ft 511 kts 56°
2026-05-07 15:44 35.30684 52.82545 23008 ft 514 kts 57°
2026-05-07 15:44 35.32620 52.86248 23214 ft 518 kts 57°
2026-05-07 15:44 35.34545 52.89982 23485 ft 520 kts 57°
2026-05-07 15:45 35.36463 52.93747 23725 ft 521 kts 58°
2026-05-07 15:45 35.38379 52.97534 23901 ft 524 kts 58°
2026-05-07 15:45 35.40298 53.01338 24129 ft 525 kts 58°
2026-05-07 15:45 35.42218 53.05151 24385 ft 526 kts 58°
2026-05-07 15:46 35.46073 53.12804 24777 ft 530 kts 58°
2026-05-07 15:46 35.48011 53.16655 24964 ft 531 kts 58°
2026-05-07 15:46 35.49953 53.20517 25197 ft 532 kts 58°
2026-05-07 15:47 35.51900 53.24391 25409 ft 534 kts 58°
2026-05-07 15:47 35.53851 53.28278 25586 ft 536 kts 58°
2026-05-07 15:47 35.55810 53.32185 25765 ft 538 kts 58°
2026-05-07 15:47 35.57772 53.36103 25973 ft 539 kts 58°
2026-05-07 15:48 35.59734 53.40026 26241 ft 539 kts 58°
2026-05-07 15:48 35.61690 53.43941 26540 ft 538 kts 58°
2026-05-07 15:48 35.63649 53.47863 26832 ft 538 kts 58°
2026-05-07 15:48 35.65606 53.51784 27111 ft 538 kts 58°
2026-05-07 15:49 35.67562 53.55708 27410 ft 539 kts 58°
2026-05-07 15:49 35.69520 53.59637 27728 ft 538 kts 58°
2026-05-07 15:49 35.71475 53.63564 28037 ft 538 kts 57°
2026-05-07 15:49 35.73429 53.67497 28376 ft 538 kts 57°
2026-05-07 15:50 35.75381 53.71427 28728 ft 538 kts 57°
2026-05-07 15:50 35.77331 53.75359 29067 ft 538 kts 57°
2026-05-07 15:50 35.79277 53.79288 29418 ft 538 kts 57°
2026-05-07 15:50 35.81223 53.83222 29746 ft 538 kts 57°
2026-05-07 15:51 35.83169 53.87159 30090 ft 538 kts 57°
2026-05-07 15:51 35.85113 53.91097 30411 ft 537 kts 57°
2026-05-07 15:51 35.87053 53.95033 30725 ft 537 kts 57°
2026-05-07 15:51 35.88993 53.98971 31003 ft 538 kts 57°
2026-05-07 15:52 35.90935 54.02918 31278 ft 538 kts 57°
2026-05-07 15:52 35.92873 54.06862 31568 ft 538 kts 57°
2026-05-07 15:52 35.94815 54.10819 31830 ft 539 kts 57°
2026-05-07 15:52 35.96757 54.14781 32084 ft 540 kts 57°
2026-05-07 15:53 35.98700 54.18748 32348 ft 540 kts 57°
2026-05-07 15:53 36.00644 54.22722 32618 ft 541 kts 57°
2026-05-07 15:53 36.02588 54.26702 32869 ft 542 kts 57°
2026-05-07 15:53 36.04532 54.30686 33109 ft 542 kts 57°
2026-05-07 15:54 36.06481 54.34683 33347 ft 543 kts 57°
2026-05-07 15:54 36.08429 54.38684 33615 ft 543 kts 57°
2026-05-07 15:54 36.10375 54.42683 33889 ft 543 kts 57°
2026-05-07 15:54 36.12317 54.46682 34172 ft 541 kts 57°
2026-05-07 15:55 36.14248 54.50663 34508 ft 539 kts 57°
2026-05-07 15:55 36.16170 54.54626 34829 ft 536 kts 57°
2026-05-07 15:55 36.18065 54.58535 34926 ft 538 kts 57°
2026-05-07 15:56 36.21914 54.66484 34926 ft 537 kts 57°
2026-05-07 15:56 36.25734 54.74395 34935 ft 534 kts 57°
2026-05-07 15:57 36.29534 54.82280 34947 ft 532 kts 57°
2026-05-07 15:57 36.33317 54.90149 34972 ft 531 kts 57°
2026-05-07 15:58 36.37089 54.98014 34985 ft 531 kts 57°
2026-05-07 15:58 36.40868 55.05907 34992 ft 532 kts 57°
2026-05-07 15:59 36.44677 55.13799 35008 ft 534 kts 56°
2026-05-07 15:59 36.48578 55.21661 35013 ft 535 kts 56°
2026-05-07 16:00 36.52487 55.29545 35014 ft 536 kts 56°
2026-05-07 16:00 36.56386 55.37464 35028 ft 537 kts 56°
2026-05-07 16:01 36.60274 55.45395 35023 ft 537 kts 56°
2026-05-07 16:01 36.64155 55.53324 35032 ft 536 kts 56°
2026-05-07 16:02 36.68022 55.61242 35030 ft 535 kts 56°
2026-05-07 16:02 36.71878 55.69154 35035 ft 533 kts 56°
2026-05-07 16:03 36.75721 55.77053 35044 ft 533 kts 56°
2026-05-07 16:03 36.79556 55.84952 35035 ft 532 kts 56°
2026-05-07 16:04 36.83384 55.92855 35037 ft 532 kts 56°
2026-05-07 16:04 36.87204 56.00761 35035 ft 532 kts 56°
2026-05-07 16:05 36.91022 56.08682 35027 ft 532 kts 56°
2026-05-07 16:05 36.94833 56.16608 35024 ft 532 kts 56°
2026-05-07 16:06 36.98614 56.24489 35026 ft 532 kts 56°
2026-05-07 16:06 37.02417 56.32437 35014 ft 532 kts 56°
2026-05-07 16:07 37.06215 56.40392 35031 ft 533 kts 57°
2026-05-07 16:07 37.09370 56.47014 35029 ft 533 kts 57°
2026-05-07 16:08 37.13161 56.54989 35025 ft 533 kts 57°
2026-05-07 16:08 37.16946 56.62971 35027 ft 533 kts 57°
2026-05-07 16:09 37.20726 56.70961 35019 ft 532 kts 57°
2026-05-07 16:09 37.24498 56.78953 35037 ft 532 kts 57°
2026-05-07 16:10 37.28264 56.86948 35043 ft 532 kts 57°
2026-05-07 16:10 37.32022 56.94941 35049 ft 531 kts 57°
2026-05-07 16:11 37.35767 57.02918 35076 ft 530 kts 57°
2026-05-07 16:11 37.39500 57.10884 35097 ft 527 kts 57°
2026-05-07 16:12 37.43211 57.18822 35123 ft 525 kts 57°
2026-05-07 16:12 37.46901 57.26733 35133 ft 523 kts 57°
2026-05-07 16:13 37.50139 57.34937 35124 ft 525 kts 71°
2026-05-07 16:13 37.51908 57.43860 35120 ft 525 kts 77°
2026-05-07 16:14 37.53576 57.52812 35117 ft 525 kts 76°
2026-05-07 16:14 37.55313 57.61762 35112 ft 526 kts 76°
2026-05-07 16:15 37.57076 57.70715 35097 ft 527 kts 76°
2026-05-07 16:15 37.58837 57.79688 35092 ft 528 kts 76°
2026-05-07 16:16 37.60587 57.88681 35095 ft 529 kts 76°
2026-05-07 16:16 37.62322 57.97633 35089 ft 529 kts 76°
2026-05-07 16:17 37.64065 58.06658 35107 ft 530 kts 76°
2026-05-07 16:17 37.65869 58.15667 35087 ft 529 kts 69°
2026-05-07 16:17 37.67567 58.19734 35110 ft 520 kts 49°
2026-05-07 16:18 37.70027 58.23009 35096 ft 510 kts 34°
2026-05-07 16:18 37.72919 58.25507 35104 ft 500 kts 21°
2026-05-07 16:18 37.76093 58.27130 35085 ft 485 kts
2026-05-07 16:19 37.82636 58.28814 35091 ft 480 kts
2026-05-07 16:19 37.89209 58.30501 35080 ft 484 kts
2026-05-07 16:20 37.95781 58.32587 35051 ft 499 kts 19°
2026-05-07 16:20 37.98728 58.35008 35094 ft 514 kts 38°
2026-05-07 16:20 38.01082 58.38458 35077 ft 524 kts 55°
2026-05-07 16:20 38.02633 58.42648 35080 ft 528 kts 72°
2026-05-07 16:21 38.03638 58.47135 35088 ft 529 kts 74°
2026-05-07 16:21 38.05536 58.56173 35061 ft 530 kts 74°
2026-05-07 16:22 38.07491 58.65189 35052 ft 529 kts 73°
2026-05-07 16:22 38.09506 58.74164 35035 ft 528 kts 73°
2026-05-07 16:23 38.11525 58.83111 35030 ft 526 kts 73°
2026-05-07 16:23 38.13513 58.91980 35030 ft 525 kts 73°
2026-05-07 16:24 38.15498 59.00889 35031 ft 524 kts 73°
2026-05-07 16:24 38.17473 59.09790 35033 ft 523 kts 73°
2026-05-07 16:25 38.19442 59.18701 35043 ft 524 kts 73°
2026-05-07 16:25 38.21410 59.27629 35036 ft 525 kts 73°
2026-05-07 16:26 38.23374 59.36590 35031 ft 526 kts 73°
2026-05-07 16:26 38.25328 59.45569 35032 ft 527 kts 73°
2026-05-07 16:27 38.27283 59.54578 35024 ft 528 kts 73°
2026-05-07 16:27 38.29232 59.63590 35024 ft 528 kts 74°
2026-05-07 16:28 38.31175 59.72607 35018 ft 528 kts 74°
2026-05-07 16:28 38.33107 59.81608 35016 ft 527 kts 74°
2026-05-07 16:29 38.35030 59.90601 35015 ft 525 kts 74°
2026-05-07 16:29 38.36940 59.99578 35010 ft 524 kts 74°
2026-05-07 16:30 38.38839 60.08533 35008 ft 523 kts 74°
2026-05-07 16:30 38.40727 60.17475 35003 ft 522 kts 74°
2026-05-07 16:31 38.42604 60.26405 34998 ft 521 kts 74°
2026-05-07 16:31 38.44471 60.35322 34998 ft 520 kts 74°
2026-05-07 16:32 38.46315 60.44165 34992 ft 519 kts 74°
2026-05-07 16:32 38.48164 60.53068 34993 ft 519 kts 75°
2026-05-07 16:33 38.50005 60.61972 34990 ft 519 kts 75°
2026-05-07 16:33 38.51839 60.70877 34984 ft 519 kts 75°
2026-05-07 16:34 38.53668 60.79794 34980 ft 519 kts 75°
2026-05-07 16:34 38.55491 60.88721 34974 ft 519 kts 75°
2026-05-07 16:35 38.57307 60.97652 34970 ft 520 kts 75°
2026-05-07 16:35 38.59119 61.06597 34969 ft 520 kts 75°
2026-05-07 16:36 38.60924 61.15545 34965 ft 520 kts 75°
2026-05-07 16:36 38.62723 61.24504 34957 ft 520 kts 75°
2026-05-07 16:37 38.64518 61.33470 34957 ft 520 kts 75°
2026-05-07 16:37 38.66180 61.42475 34953 ft 520 kts 79°
2026-05-07 16:38 38.67329 61.51601 34948 ft 520 kts 82°
2026-05-07 16:38 38.68361 61.60750 34945 ft 519 kts 82°
2026-05-07 16:39 38.69446 61.69882 34943 ft 518 kts 81°
2026-05-07 16:39 38.70570 61.78989 34936 ft 518 kts 81°
2026-05-07 16:40 38.71690 61.88030 34934 ft 517 kts 81°
2026-05-07 16:40 38.72805 61.97109 34929 ft 514 kts 81°
2026-05-07 16:41 38.73902 62.06129 34911 ft 511 kts 81°
2026-05-07 16:41 38.74984 62.15093 34912 ft 508 kts 81°
2026-05-07 16:42 38.76054 62.24020 34912 ft 506 kts 81°
2026-05-07 16:42 38.77114 62.32917 34911 ft 505 kts 81°
2026-05-07 16:43 38.78166 62.41807 34905 ft 504 kts 81°
2026-05-07 16:43 38.79212 62.50702 34901 ft 505 kts 81°
2026-05-07 16:44 38.80251 62.59603 34900 ft 505 kts 81°
2026-05-07 16:44 38.81286 62.68528 34899 ft 506 kts 81°
2026-05-07 16:45 38.82316 62.77466 34891 ft 507 kts 81°
2026-05-07 16:45 38.83341 62.86429 34888 ft 508 kts 81°
2026-05-07 16:46 38.84360 62.95402 34882 ft 508 kts 81°
2026-05-07 16:46 38.85371 63.04369 34881 ft 508 kts 81°
2026-05-07 16:47 38.86376 63.13337 34879 ft 507 kts 81°
2026-05-07 16:47 38.87372 63.22290 34879 ft 506 kts 81°
2026-05-07 16:48 38.88359 63.31229 34875 ft 506 kts 81°
2026-05-07 16:48 38.89339 63.40161 34876 ft 505 kts 81°
2026-05-07 16:49 38.90305 63.49015 34876 ft 504 kts 81°
2026-05-07 16:49 38.91302 63.57910 34871 ft 503 kts 78°
2026-05-07 16:50 38.93461 63.66389 34893 ft 499 kts 66°
2026-05-07 16:50 38.96032 63.74665 34877 ft 499 kts 67°
2026-05-07 16:51 38.98535 63.82977 34884 ft 498 kts 68°
2026-05-07 16:51 39.00995 63.91301 34879 ft 498 kts 68°
2026-05-07 16:52 39.03445 63.99623 34870 ft 497 kts 68°
2026-05-07 16:52 39.05887 64.07936 34874 ft 497 kts 69°
2026-05-07 16:52 39.06773 64.12238 34873 ft 498 kts 81°
2026-05-07 16:53 39.06991 64.16681 34889 ft 498 kts 92°
2026-05-07 16:53 39.06613 64.21099 34878 ft 497 kts 104°
2026-05-07 16:53 39.05708 64.25387 34906 ft 496 kts 107°
2026-05-07 16:54 39.03792 64.33921 34893 ft 497 kts 107°
2026-05-07 16:54 39.01931 64.42485 34887 ft 497 kts 106°
2026-05-07 16:55 39.00104 64.51069 34890 ft 498 kts 106°
2026-05-07 16:55 38.98277 64.59661 34890 ft 499 kts 106°
2026-05-07 16:56 38.96440 64.68252 34910 ft 499 kts 106°
2026-05-07 16:56 38.93980 64.79683 34900 ft 498 kts 106°
2026-05-07 16:57 38.92127 64.88256 34908 ft 498 kts 106°
2026-05-07 16:57 38.90270 64.96822 34906 ft 498 kts 106°
2026-05-07 16:58 38.88409 65.05374 34904 ft 497 kts 106°
2026-05-07 16:58 38.86535 65.13918 34912 ft 497 kts 106°
2026-05-07 16:59 38.84658 65.22438 34907 ft 496 kts 106°
2026-05-07 16:59 38.82778 65.30949 34903 ft 496 kts 106°
2026-05-07 17:00 38.80896 65.39450 34903 ft 495 kts 106°
2026-05-07 17:00 38.79011 65.47930 34906 ft 494 kts 107°
2026-05-07 17:01 38.77122 65.56401 34909 ft 494 kts 107°
2026-05-07 17:01 38.75241 65.64799 34911 ft 493 kts 107°
2026-05-07 17:02 38.73344 65.73240 34906 ft 493 kts 107°
2026-05-07 17:02 38.71443 65.81669 34911 ft 492 kts 107°
2026-05-07 17:03 38.69537 65.90086 34917 ft 492 kts 107°
2026-05-07 17:03 38.67627 65.98493 34915 ft 492 kts 107°
2026-05-07 17:04 38.65713 66.06887 34924 ft 491 kts 107°
2026-05-07 17:04 38.63796 66.15275 34937 ft 491 kts 107°
2026-05-07 17:05 38.61950 66.23680 34934 ft 491 kts 101°
2026-05-07 17:05 38.61429 66.32355 34959 ft 490 kts 91°
2026-05-07 17:06 38.61223 66.41070 34963 ft 490 kts 91°
2026-05-07 17:06 38.60943 66.49786 34978 ft 491 kts 92°
2026-05-07 17:07 38.60628 66.58504 34998 ft 491 kts 92°
2026-05-07 17:07 38.60309 66.67226 35012 ft 491 kts 92°
2026-05-07 17:08 38.59986 66.75947 35032 ft 491 kts 92°
2026-05-07 17:08 38.59656 66.84603 35057 ft 491 kts 92°
2026-05-07 17:09 38.59316 66.93310 35069 ft 490 kts 92°
2026-05-07 17:09 38.58974 67.02009 35096 ft 490 kts 92°
2026-05-07 17:10 38.58626 67.10711 35105 ft 490 kts 92°
2026-05-07 17:10 38.58273 67.19444 34479 ft 498 kts 92°
2026-05-07 17:11 38.58090 67.23840 33924 ft 492 kts 92°
2026-05-07 17:11 38.57905 67.28217 32651 ft 498 kts 92°
2026-05-07 17:11 38.57716 67.32634 31735 ft 497 kts 92°
2026-05-07 17:11 38.57526 67.37016 30924 ft 492 kts 92°
2026-05-07 17:12 38.57337 67.41403 29799 ft 495 kts 92°
2026-05-07 17:12 38.57146 67.45790 28701 ft 494 kts 92°
2026-05-07 17:12 38.56953 67.50178 27596 ft 494 kts 92°
2026-05-07 17:12 38.56760 67.54568 26446 ft 496 kts 92°
2026-05-07 17:13 38.56565 67.58970 25507 ft 494 kts 92°
2026-05-07 17:13 38.56372 67.63320 24696 ft 488 kts 93°
2026-05-07 17:13 38.56179 67.67638 23837 ft 485 kts 93°
2026-05-07 17:13 38.55985 67.71908 22893 ft 477 kts 93°
2026-05-07 17:14 38.55791 67.76094 22064 ft 468 kts 93°
2026-05-07 17:14 38.55599 67.80212 21312 ft 461 kts 93°
2026-05-07 17:14 38.55410 67.84276 20508 ft 456 kts 92°
2026-05-07 17:14 38.55223 67.88305 19734 ft 452 kts 93°
2026-05-07 17:15 38.55034 67.92291 18951 ft 447 kts 92°
2026-05-07 17:15 38.54851 67.96238 18152 ft 441 kts 92°
2026-05-07 17:15 38.54758 68.00082 17147 ft 428 kts 90°
2026-05-07 17:15 38.54738 68.03848 16086 ft 420 kts 89°
2026-05-07 17:16 38.54739 68.07472 15445 ft 404 kts 89°
2026-05-07 17:16 38.54734 68.10952 15227 ft 379 kts 89°
2026-05-07 17:16 38.54720 68.14212 15025 ft 357 kts 89°
2026-05-07 17:16 38.54699 68.17319 14695 ft 341 kts 90°
2026-05-07 17:17 38.54674 68.20336 13888 ft 342 kts 90°
2026-05-07 17:17 38.54645 68.23390 13040 ft 345 kts 90°
2026-05-07 17:17 38.54614 68.26464 12172 ft 347 kts 90°
2026-05-07 17:17 38.54582 68.29550 11339 ft 348 kts 90°
2026-05-07 17:18 38.54546 68.32641 10519 ft 348 kts 90°
2026-05-07 17:18 38.54511 68.35729 9703 ft 347 kts 90°
2026-05-07 17:18 38.54476 68.38809 8829 ft 346 kts 91°
2026-05-07 17:18 38.54479 68.41866 8222 ft 338 kts 89°
2026-05-07 17:19 38.54514 68.44814 7763 ft 326 kts 89°
2026-05-07 17:19 38.54516 68.47661 7357 ft 315 kts 90°
2026-05-07 17:19 38.54500 68.50410 6969 ft 304 kts 90°
2026-05-07 17:19 38.54482 68.53072 6602 ft 295 kts 90°
2026-05-07 17:20 38.54468 68.55655 6243 ft 287 kts 90°
2026-05-07 17:20 38.54456 68.58165 5887 ft 279 kts 90°
2026-05-07 17:20 38.54443 68.60600 5513 ft 267 kts 90°
2026-05-07 17:20 38.54431 68.62885 5208 ft 249 kts 90°
2026-05-07 17:21 38.54425 68.65010 4927 ft 230 kts 90°
2026-05-07 17:21 38.54420 68.66961 4655 ft 215 kts 90°
2026-05-07 17:21 38.54409 68.68814 4397 ft 200 kts 90°
2026-05-07 17:21 38.54403 68.70539 4126 ft 187 kts 90°
2026-05-07 17:22 38.54391 68.72115 3920 ft 168 kts 89°
2026-05-07 17:22 38.54391 68.73546 3708 ft 154 kts 89°
2026-05-07 17:22 38.54390 68.74891 3485 ft 149 kts 89°
2026-05-07 17:22 38.54387 68.76211 3295 ft 149 kts 89°
2026-05-07 17:23 38.54383 68.77530 3105 ft 148 kts 89°
2026-05-07 17:23 38.54379 68.78840 2900 ft 147 kts 87°
2026-05-07 17:23 38.54373 68.80138 2683 ft 147 kts 91°
2026-05-07 17:23 38.54367 68.81405 2571 ft 125 kts 89°
2026-05-07 17:24 38.54374 68.82026 2566 ft 23 kts 66°
2026-05-07 17:24 38.54469 68.82045 2569 ft 0 kts 324°